Location: Santa Cristina
(46.5667°N, 11.7167°E)
Time: 05:12:08
(UTC+00:00)

Cosmos 44 - Pass Details

Date: 21 April 2021
Orbit: 571 x 791 km, 65.1° (Epoch: 15 May)

Event Time Altitude Azimuth Distance (km) Brightness Sun altitude
Rises 03:15:01 0° 322° (NW) 3,297 6.7 -10.3°
Reaches altitude 10° 03:17:28 10° 322° (NW) 2,362 6.0 -9.9°
Maximum altitude 03:22:56 82° 236° (SW) 792 3.5 -9.1°
Drops below altitude 10° 03:28:13 10° 149° (SSE) 2,278 6.0 -8.3°
Sets 03:30:32 0° 149° (SSE) 3,172 6.8 -7.9°
